Погода в Шульгинке

Россия / Алтайский край     52°26′13″N   85°19′00″E
темп.,
°C
ветер,
м/с
пор.,
м/с
влажн.,
%
обл.,
%
осадки,
мм/ч
давл.,
гПа
погр.,
м
15 мая, сб
сб1501:00+10св336190 0.0 102447
04:00+9всв116597 0.0 102510
07:00+11ююв116341 0.0 102547
10:00+16ююз22485 0.0 1025681
13:00+20юз22365 0.0 10241224
16:00+22зюз123488 0.0 10221385
19:00+22ююз13375 0.0 10211416
22:00+16ююз335546 0.0 102130
16 мая, вс
вс1601:00+14юз33619 0.0 102133
04:00+12юз33655 0.0 102042
07:00+13ююз37686 0.0 1019182
10:00+21зюз694265 0.0 1018804
13:00+25зюз79355 0.1 10161520
16:00+26зюз79347 0.0 10142327
19:00+23зюз5114632 0.0 1013415
22:00+20зюз6155314 0.0 1013383
17 мая, пн
пн1701:00+18зюз51254100 0.0 1012274
04:00+17зюз5126794 0.3 1012327
07:00+16зюз378198 0.8 1013285
10:00+16з2486100 0.6 1014343
13:00+16юз448396 1.6 1015429
16:00+19с237087 0.6 1015665
19:00+19сз357099 0.9 1015230
22:00+15з22775 0.0 101516
18 мая, вт
вт1801:00+14з22855 0.0 101619
04:00+12юз359216 0.0 101581
07:00+14юз37856 0.0 1014195
10:00+21зюз695513 0.1 1012907
13:00+25зюз9124272 0.4 10091615
16:00+26зюз7124155 0.0 10072792
19:00+17ююз487987 7.8 1008249
22:00+15юз2291100 2.4 100832
19 мая, ср
ср1901:00+14зюз61394100 4.3 1008352
04:00+14зюз41191100 0.2 1006291
07:00+14зюз51092100 1.3 1006332
10:00+17зсз6977100 0.6 1006774
13:00+19сз7863100 0.7 10061593
16:00+16с5667100 0.2 10071048
19:00+11с61074100 0.3 1009619
22:00+10сз2473100 1.3 1011148